Location: ??
(31.9467°N, 34.8903°E)
Time: 12:31:22
(UTC+00:00)

Meteor 2-10 Rocket - Pass Details

Date: 29 October 2020
Orbit: 733 x 885 km, 81.2° (Epoch: 27 November)

Event Time Altitude Azimuth Distance (km) Brightness Sun altitude
Rises 16:02:45 0° 191° (S) 3,336 7.0 -15.3°
Reaches altitude 10° 16:05:11 10° 193° (SSW) 2,384 6.3 -15.8°
Maximum altitude 16:10:32 74° 277° (W) 815 3.7 -17.0°
Drops below altitude 10° 16:15:43 10° 4° (N) 2,301 5.9 -18.0°
Sets 16:18:02 0° 6° (N) 3,212 6.6 -18.5°
